Regional Weather Roundup
Issued by NWS

Home | Current Version | Previous Version | Graphics & Text | Print | Product List | Glossary On
Versions: 1 2 3 4 5 6 7 8 9 10 11 12 13 14 15 16 17 18 19 20 21 22 23 24 25 26 27 28 29 30 31 32 33 34 35 36 37 38 39 40 41 42 43 44 45 46 47 48 49 50
000
ASUS43 KLMK 271410
RWRKY
KENTUCKY REGIONAL WEATHER ROUNDUP
NATIONAL WEATHER SERVICE LOUISVILLE KY
900 AM EST SAT DEC 27 2014

NOTE "FAIR" INDICATES FEW OR NO CLOUDS BELOW 12,000 FEET
WITH NO SIGNIFICANT WEATHER AND/OR OBSTRUCTIONS TO VISIBILITY.

KYZ001>023-026-027-061>063-070>075-271500-
WESTERN AND SOUTH CENTRAL KENTUCKY

CITY           SKY/WX    TMP DP  RH WIND       PRES   REMARKS
PADUCAH        CLOUDY    48  46  93 S9        30.16R FOG
HENDERSON      CLOUDY    46  43  87 S8        30.17R
OWENSBORO      CLOUDY    46  45  97 S10       30.20R
HOPKINSVILLE   CLOUDY    47  44  92 SE2       30.21R
BOWLING GREEN  CLOUDY    51  39  63 S5        30.24R
GLASGOW        CLOUDY    50  36  58 S3        30.23R
$$

KYZ024-025-028>034-038-045-046-053-271500-
NORTH CENTRAL KENTUCKY

CITY           SKY/WX    TMP DP  RH WIND       PRES   REMARKS
LOUISVILLE/SDF CLOUDY    48  41  76 SE8       30.20F
LOUISVILLE/LOU CLOUDY    48  40  73 SE6       30.21F
FORT KNOX      CLOUDY    46  41  81 S8        30.20R
$$

KYZ035>037-039>044-047>052-055>060-089>105-271500-
NORTHEAST KENTUCKY

CITY           SKY/WX    TMP DP  RH WIND       PRES   REMARKS
LEXINGTON      CLOUDY    46  36  68 S7        30.24R
COVINGTON      CLOUDY    44  35  70 S8        30.21S
FRANKFORT      LGT RAIN  46  38  73 SE5       30.22S
$$

KYZ054-064>069-076>088-106>120-271500-
SOUTHEAST KENTUCKY

CITY           SKY/WX    TMP DP  RH WIND       PRES   REMARKS
JACKSON        PTSUNNY   46  25  43 CALM      30.25R
LONDON         MOSUNNY   42  33  70 CALM      30.26R
SOMERSET       CLOUDY    45  36  70 CALM      30.27R
MIDDLESBORO    MOSUNNY   43  37  79 CALM      30.30R
MONTICELLO     PTSUNNY   49  37  63 CALM      30.27S
$$



USA.gov is the U.S. government's official web portal to all federal, state and local government web resources and services.